M I D A S
Marine Information and Data Acquisition System
Tripno 489 of the Zeeleeuw from 2003-04-10 06:47:10 to 2003-04-10 14:06:13
Back to CruiseResearch ActivitiesStationsMapUnderway DataData graphs

EquipmentUnitsComments
TimeDGPSUTC
LatitudeDGPSDM.mWGS84
LongitudeDGPSDM.mWGS84
SpeedMeteo Stationm/sRelative wind speed
DirectionMeteo StationdegRelative wind direction
TemperatureMeteo Stationdeg CelciusAir temperature
PressureMeteo StationPaAtmospheric pressure
HumidityMeteo Station%Relative humidity
Missing or incorrect values are displayed as -999
Metereological data collected by the RV Zeeleeuw from 2003-04-10 06:47:10 to 2003-04-10 14:06:13
                                                                                    Next 1000 lines
Time Latitude Longitude Speed Direction Temperature Pressure Humidity
2003-04-10 06:47:18 51°13.6 2°56.1 1.5 4 3.3 100640 86
2003-04-10 06:47:24 51°13.6 2°56.1 1.4 4 3.3 100640 86
2003-04-10 06:47:28 51°13.6 2°56.1 1.3 346 3.3 100640 86
2003-04-10 06:47:34 51°13.6 2°56.1 1.4 323 3.3 100640 86
2003-04-10 06:47:38 51°13.6 2°56.1 1.3 333 3.3 100640 86
2003-04-10 06:47:44 51°13.6 2°56.1 1.2 330 3.3 100640 86
2003-04-10 06:47:48 51°13.6 2°56.1 1.4 340 3.3 100640 86
2003-04-10 06:47:54 51°13.6 2°56.1 1.2 349 3.3 100640 86
2003-04-10 06:47:58 51°13.6 2°56.1 0.9 5 3.3 100640 86
2003-04-10 06:48:04 51°13.6 2°56.1 1.2 322 3.3 100650 86
2003-04-10 06:48:08 51°13.6 2°56.1 1.3 359 3.3 100650 86
2003-04-10 06:48:14 51°13.6 2°56.1 1.4 11 3.3 100650 86
2003-04-10 06:48:18 51°13.6 2°56.1 1.2 19 3.3 100650 86
2003-04-10 06:48:24 51°13.6 2°56.1 1.2 13 3.3 100640 86
2003-04-10 06:48:28 51°13.6 2°56.1 0.8 12 3.3 100640 86
2003-04-10 06:48:34 51°13.6 2°56.1 0.7 12 3.3 100640 86
2003-04-10 06:48:38 51°13.6 2°56.09 0.5 11 3.3 100640 86
2003-04-10 06:48:44 51°13.6 2°56.09 0.4 12 3.3 100640 86
2003-04-10 06:48:48 51°13.6 2°56.08 0.3 12 3.3 100640 86
2003-04-10 06:48:54 51°13.61 2°56.08 0.2 12 3.3 100640 86
2003-04-10 06:48:58 51°13.61 2°56.07 0.1 12 3.3 100640 86
2003-04-10 06:49:04 51°13.61 2°56.07   12 3.3 100640 86
2003-04-10 06:49:08 51°13.61 2°56.06   12 3.3 100640 86
2003-04-10 06:49:14 51°13.61 2°56.05   13 3.3 100650 86
2003-04-10 06:49:18 51°13.61 2°56.05   126 3.3 100650 86
2003-04-10 06:49:24 51°13.61 2°56.04   179 3.3 100650 86
2003-04-10 06:49:28 51°13.62 2°56.03 0.4 185 3.3 100650 86
2003-04-10 06:49:34 51°13.62 2°56.02 0.3 185 3.3 100650 86
2003-04-10 06:49:38 51°13.62 2°56.02 0.1 185 3.3 100650 86
2003-04-10 06:49:44 51°13.62 2°56.01 0.2 195 3.3 100640 86
2003-04-10 06:49:48 51°13.62 2°56 0.6 190 3.3 100640 86
2003-04-10 06:49:54 51°13.63 2°55.99 0.5 190 3.4 100650 86
2003-04-10 06:49:58 51°13.63 2°55.98 0.5 171 3.4 100650 86
2003-04-10 06:50:04 51°13.63 2°55.97 0.4 169 3.4 100650 86
2003-04-10 06:50:08 51°13.63 2°55.96 0.5 120 3.4 100650 86
2003-04-10 06:50:14 51°13.64 2°55.95 0.9 142 3.4 100650 86
2003-04-10 06:50:18 51°13.64 2°55.95 0.9 114 3.4 100650 86
2003-04-10 06:50:24 51°13.64 2°55.94 1 112 3.4 100650 86
2003-04-10 06:50:28 51°13.64 2°55.93 1 136 3.4 100650 86
2003-04-10 06:50:34 51°13.65 2°55.92 1 131 3.3 100640 86
2003-04-10 06:50:38 51°13.65 2°55.91 1.1 130 3.3 100640 86
2003-04-10 06:50:44 51°13.65 2°55.9 1.3 134 3.3 100640 86
2003-04-10 06:50:48 51°13.65 2°55.9 0.8 123 3.3 100640 86
2003-04-10 06:50:54 51°13.65 2°55.89 1 111 3.3 100650 86
2003-04-10 06:50:58 51°13.65 2°55.88 0.6 105 3.3 100650 86
2003-04-10 06:51:04 51°13.66 2°55.88 0.9 101 3.3 100650 86
2003-04-10 06:51:08 51°13.66 2°55.87 1.2 127 3.3 100650 86
2003-04-10 06:51:14 51°13.66 2°55.86 1 121 3.3 100650 86
2003-04-10 06:51:18 51°13.66 2°55.85 1.2 137 3.3 100650 86
2003-04-10 06:51:24 51°13.66 2°55.84 1.1 148 3.3 100650 86
2003-04-10 06:51:28 51°13.66 2°55.84 0.7 96 3.3 100650 86
2003-04-10 06:51:34 51°13.67 2°55.83 0.8 96 3.3 100650 86
2003-04-10 06:51:38 51°13.67 2°55.82 1 145 3.3 100650 86
2003-04-10 06:51:44 51°13.67 2°55.81 1.1 138 3.4 100650 86
2003-04-10 06:51:48 51°13.67 2°55.8 1.6 117 3.4 100650 86
2003-04-10 06:51:54 51°13.68 2°55.8 1.5 121 3.3 100640 86
2003-04-10 06:51:58 51°13.68 2°55.79 1.2 103 3.3 100640 86
2003-04-10 06:52:04 51°13.68 2°55.79 0.9 105 3.3 100650 86
2003-04-10 06:52:08 51°13.68 2°55.78 1.1 90 3.3 100650 86
2003-04-10 06:52:14 51°13.68 2°55.78 0.7 90 3.3 100640 86
2003-04-10 06:52:18 51°13.68 2°55.78 0.9 42 3.3 100640 86
2003-04-10 06:52:24 51°13.68 2°55.77 1.1 53 3.3 100640 86
2003-04-10 06:52:28 51°13.68 2°55.77 2.1 46 3.3 100640 86
2003-04-10 06:52:34 51°13.68 2°55.77 2 31 3.3 100640 86
2003-04-10 06:52:38 51°13.68 2°55.78 2.7 37 3.3 100640 86
2003-04-10 06:52:44 51°13.68 2°55.78 3.1 23 3.3 100640 86
2003-04-10 06:52:48 51°13.68 2°55.78 3.3 20 3.3 100640 86
2003-04-10 06:52:54 51°13.68 2°55.78 3.6 9 3.3 100640 86
2003-04-10 06:52:58 51°13.68 2°55.78 2.9 355 3.3 100640 86
2003-04-10 06:53:04 51°13.68 2°55.79 3.1 354 3.3 100640 86
2003-04-10 06:53:08 51°13.68 2°55.79 2.4 346 3.3 100640 86
2003-04-10 06:53:14 51°13.68 2°55.79 2.5 358 3.3 100640 86
2003-04-10 06:53:18 51°13.68 2°55.79 1.8 353 3.3 100640 86
2003-04-10 06:53:24 51°13.68 2°55.78 1.7 347 3.3 100640 86
2003-04-10 06:53:28 51°13.68 2°55.78 1.6 345 3.3 100640 86
2003-04-10 06:53:34 51°13.68 2°55.78 1.3 344 3.3 100640 86
2003-04-10 06:53:38 51°13.68 2°55.78 0.8 341 3.3 100640 86
2003-04-10 06:53:44 51°13.68 2°55.77 0.8 343 3.3 100640 85
2003-04-10 06:53:48 51°13.68 2°55.77 0.6 335 3.3 100640 85
2003-04-10 06:53:54 51°13.68 2°55.76 0.6 335 3.3 100640 85
2003-04-10 06:53:58 51°13.68 2°55.76 0.4 336 3.3 100640 85
2003-04-10 06:54:04 51°13.68 2°55.76 0.5 336 3.3 100640 85
2003-04-10 06:54:08 51°13.68 2°55.76 1.4 349 3.3 100640 85
2003-04-10 06:54:14 51°13.68 2°55.76 1.6 338 3.2 100640 85
2003-04-10 06:54:18 51°13.68 2°55.76 1.7 336 3.2 100640 85
2003-04-10 06:54:24 51°13.68 2°55.76 1.7 333 3.2 100640 85
2003-04-10 06:54:28 51°13.68 2°55.76 2.4 326 3.2 100640 85
2003-04-10 06:54:34 51°13.68 2°55.76 2.5 325 3.2 100640 85
2003-04-10 06:54:38 51°13.68 2°55.76 2.5 316 3.2 100640 85
2003-04-10 06:54:44 51°13.68 2°55.76 2.5 321 3.2 100640 85
2003-04-10 06:54:48 51°13.69 2°55.76 3.5 326 3.2 100640 85
2003-04-10 06:54:54 51°13.69 2°55.76 3.8 323 3.2 100640 85
2003-04-10 06:54:58 51°13.69 2°55.77 3.7 311 3.2 100640 85
2003-04-10 06:55:04 51°13.7 2°55.77 4.1 319 3.2 100640 85
2003-04-10 06:55:08 51°13.7 2°55.77 3.6 310 3.2 100640 85
2003-04-10 06:55:14 51°13.7 2°55.77 3.4 307 3.1 100640 85
2003-04-10 06:55:18 51°13.71 2°55.77 3.1 299 3.1 100640 85
2003-04-10 06:55:24 51°13.71 2°55.77 3.1 303 3.1 100640 85
2003-04-10 06:55:28 51°13.71 2°55.76 3.1 314 3.1 100640 85
2003-04-10 06:55:34 51°13.72 2°55.76 2.8 312 3.1 100640 85
2003-04-10 06:55:38 51°13.72 2°55.76 3.5 303 3.1 100640 85
2003-04-10 06:55:44 51°13.73 2°55.75 3.1 296 3.1 100640 85
2003-04-10 06:55:48 51°13.73 2°55.75 2.8 295 3.1 100640 85
2003-04-10 06:55:54 51°13.73 2°55.75 2.8 298 3.1 100640 85
2003-04-10 06:55:58 51°13.74 2°55.74 2.7 290 3.1 100640 85
2003-04-10 06:56:04 51°13.74 2°55.74 2.7 293 3 100640 85
2003-04-10 06:56:08 51°13.75 2°55.73 2.5 298 3 100640 85
2003-04-10 06:56:14 51°13.75 2°55.72 2 302 3 100640 85
2003-04-10 06:56:18 51°13.76 2°55.72 2.1 313 3 100640 85
2003-04-10 06:56:24 51°13.76 2°55.71 1.9 313 3 100640 85
2003-04-10 06:56:28 51°13.77 2°55.7 1.7 328 3 100640 85
2003-04-10 06:56:34 51°13.78 2°55.69 1.9 332 2.9 100650 85
2003-04-10 06:56:38 51°13.78 2°55.69 2.2 315 2.9 100650 85
2003-04-10 06:56:44 51°13.79 2°55.67 2.2 319 2.9 100650 85
2003-04-10 06:56:48 51°13.79 2°55.67 2.8 310 2.9 100650 85
2003-04-10 06:56:54 51°13.8 2°55.66 2.8 314 2.9 100650 85
2003-04-10 06:56:58 51°13.81 2°55.65 3.2 324 2.9 100650 85
2003-04-10 06:57:04 51°13.82 2°55.64 3.1 341 2.9 100650 85
2003-04-10 06:57:08 51°13.82 2°55.64 4.3 345 2.9 100650 85
2003-04-10 06:57:14 51°13.83 2°55.63 3.9 327 2.9 100650 85
2003-04-10 06:57:18 51°13.84 2°55.62 4.3 324 2.9 100650 85
2003-04-10 06:57:24 51°13.85 2°55.61 4.5 328 2.9 100650 85
2003-04-10 06:57:28 51°13.86 2°55.61 4.5 315 2.9 100650 85
2003-04-10 06:57:34 51°13.87 2°55.6 4.1 316 2.9 100650 85
2003-04-10 06:57:38 51°13.88 2°55.59 4.2 323 2.9 100650 85
2003-04-10 06:57:44 51°13.89 2°55.58 3.6 326 2.8 100640 85
2003-04-10 06:57:48 51°13.9 2°55.58 4.1 324 2.8 100640 85
2003-04-10 06:57:54 51°13.91 2°55.57 4.4 327 2.8 100640 85
2003-04-10 06:57:58 51°13.91 2°55.56 5.3 307 2.8 100640 85
2003-04-10 06:58:04 51°13.93 2°55.56 5 299 2.8 100650 85
2003-04-10 06:58:08 51°13.93 2°55.55 4.8 309 2.8 100650 85
2003-04-10 06:58:14 51°13.95 2°55.54 4.5 302 2.8 100650 85
2003-04-10 06:58:18 51°13.96 2°55.54 4 305 2.8 100650 85
2003-04-10 06:58:24 51°13.97 2°55.53 4.9 308 2.8 100650 85
2003-04-10 06:58:28 51°13.98 2°55.52 4.5 307 2.8 100650 85
2003-04-10 06:58:34 51°13.99 2°55.51 4.5 308 2.8 100650 85
2003-04-10 06:58:38 51°14 2°55.51 3.9 309 2.8 100650 85
2003-04-10 06:58:44 51°14.01 2°55.5 3.6 305 2.8 100650 85
2003-04-10 06:58:48 51°14.02 2°55.49 3.8 312 2.8 100650 85
2003-04-10 06:58:54 51°14.03 2°55.48 3.8 312 2.8 100650 85
2003-04-10 06:58:58 51°14.04 2°55.48 4.2 327 2.8 100650 85
2003-04-10 06:59:04 51°14.05 2°55.47 4.2 318 2.7 100650 85
2003-04-10 06:59:08 51°14.06 2°55.46 4.4 329 2.7 100650 85
2003-04-10 06:59:14 51°14.07 2°55.46 4.1 326 2.7 100650 85
2003-04-10 06:59:18 51°14.08 2°55.45 5.4 321 2.7 100650 85
2003-04-10 06:59:24 51°14.09 2°55.44 5.2 321 2.7 100650 85
2003-04-10 06:59:28 51°14.1 2°55.44 5 321 2.7 100650 85
2003-04-10 06:59:34 51°14.11 2°55.43 5 316 2.7 100650 85
2003-04-10 06:59:38 51°14.12 2°55.42 4.3 319 2.7 100650 85
2003-04-10 06:59:44 51°14.14 2°55.41 3.9 311 2.7 100640 85
2003-04-10 06:59:48 51°14.14 2°55.4 4 329 2.7 100640 85
2003-04-10 06:59:54 51°14.16 2°55.39 4 330 2.7 100640 85
2003-04-10 06:59:58 51°14.16 2°55.39 4.2 318 2.7 100640 85
2003-04-10 07:00:04 51°14.18 2°55.37 4.4 315 2.7 100640 85
2003-04-10 07:00:08 51°14.18 2°55.37 3.7 308 2.7 100640 85
2003-04-10 07:00:14 51°14.2 2°55.35 3.6 309 2.7 100650 85
2003-04-10 07:00:18 51°14.2 2°55.34 3.1 320 2.7 100650 85
2003-04-10 07:00:24 51°14.21 2°55.33 3.3 311 2.7 100650 85
2003-04-10 07:00:28 51°14.22 2°55.32 3.7 318 2.7 100650 85
2003-04-10 07:00:34 51°14.23 2°55.31 3.4 320 2.6 100640 85
2003-04-10 07:00:38 51°14.24 2°55.3 4.2 333 2.6 100640 85
2003-04-10 07:00:44 51°14.25 2°55.28 4.3 326 2.6 100650 85
2003-04-10 07:00:48 51°14.26 2°55.27 3.9 327 2.6 100650 85
2003-04-10 07:00:54 51°14.27 2°55.25 4.2 325 2.6 100640 85
2003-04-10 07:00:58 51°14.28 2°55.23 4.1 323 2.7 100650 85
2003-04-10 07:01:04 51°14.29 2°55.21 4 327 2.7 100650 85
2003-04-10 07:01:08 51°14.29 2°55.2 4.4 339 2.7 100650 86
2003-04-10 07:01:14 51°14.3 2°55.18 4.4 323 2.7 100650 86
2003-04-10 07:01:18 51°14.31 2°55.17 4.1 326 2.7 100640 86
2003-04-10 07:01:24 51°14.32 2°55.14 3.9 319 2.7 100640 86
2003-04-10 07:01:28 51°14.33 2°55.13 5.3 334 2.7 100640 86
2003-04-10 07:01:34 51°14.34 2°55.11 4 325 2.7 100650 86
2003-04-10 07:01:38 51°14.34 2°55.09 4 326 2.7 100650 86
2003-04-10 07:01:44 51°14.35 2°55.07 3.6 330 2.7 100650 86
2003-04-10 07:01:48 51°14.36 2°55.06 3.5 323 2.7 100650 86
2003-04-10 07:01:54 51°14.37 2°55.04 3.9 335 2.7 100650 86
2003-04-10 07:01:58 51°14.38 2°55.02 4.1 330 2.7 100650 86
2003-04-10 07:02:04 51°14.39 2°55 3.9 327 2.7 100650 86
2003-04-10 07:02:08 51°14.4 2°54.99 4.8 326 2.7 100650 86
2003-04-10 07:02:14 51°14.41 2°54.97 4.6 319 2.7 100650 86
2003-04-10 07:02:18 51°14.42 2°54.96 5.2 321 2.7 100650 86
2003-04-10 07:02:24 51°14.44 2°54.95 5.2 329 2.7 100650 86
2003-04-10 07:02:28 51°14.45 2°54.94 5.5 325 2.7 100650 86
2003-04-10 07:02:34 51°14.46 2°54.92 5.7 331 2.7 100650 86
2003-04-10 07:02:38 51°14.47 2°54.91 5.7 318 2.7 100650 86
2003-04-10 07:02:44 51°14.49 2°54.9 6.2 317 2.7 100650 86
2003-04-10 07:02:48 51°14.5 2°54.89 6.2 314 2.7 100650 86
2003-04-10 07:02:54 51°14.51 2°54.88 6.2 315 2.7 100650 86
2003-04-10 07:02:58 51°14.53 2°54.87 6.2 310 2.7 100650 86
2003-04-10 07:03:04 51°14.54 2°54.85 5.7 308 2.7 100650 86
2003-04-10 07:03:08 51°14.55 2°54.84 5.9 308 2.7 100650 86
2003-04-10 07:03:14 51°14.57 2°54.83 5.6 315 2.7 100630 86
2003-04-10 07:03:18 51°14.58 2°54.82 5.4 316 2.7 100640 85
2003-04-10 07:03:24 51°14.6 2°54.8 6.1 319 2.7 100640 85
2003-04-10 07:03:28 51°14.61 2°54.79 6.8 320 2.7 100640 85
2003-04-10 07:03:34 51°14.63 2°54.78 7.1 319 2.6 100640 85
2003-04-10 07:03:38 51°14.64 2°54.77 6.8 321 2.6 100640 85
2003-04-10 07:03:44 51°14.65 2°54.75 6.3 320 2.6 100640 85
2003-04-10 07:03:48 51°14.67 2°54.74 6.8 313 2.6 100640 85
2003-04-10 07:03:54 51°14.68 2°54.73 6.1 325 2.6 100650 85
2003-04-10 07:03:58 51°14.69 2°54.72 6 324 2.6 100640 85
2003-04-10 07:04:04 51°14.71 2°54.7 5.5 324 2.6 100640 85
2003-04-10 07:04:08 51°14.72 2°54.69 6.6 323 2.6 100650 85
2003-04-10 07:04:14 51°14.74 2°54.67 6.5 326 2.6 100650 85
2003-04-10 07:04:18 51°14.75 2°54.66 7.2 322 2.6 100650 86
2003-04-10 07:04:24 51°14.77 2°54.65 7 316 2.6 100650 86
2003-04-10 07:04:28 51°14.78 2°54.64 6 318 2.6 100650 86
2003-04-10 07:04:34 51°14.8 2°54.62 6.8 321 2.6 100650 86
2003-04-10 07:04:38 51°14.81 2°54.61 6.3 317 2.6 100650 86
2003-04-10 07:04:44 51°14.83 2°54.59 6.4 315 2.6 100640 86
2003-04-10 07:04:48 51°14.84 2°54.58 6.6 321 2.6 100640 86
2003-04-10 07:04:54 51°14.86 2°54.56 6.2 316 2.6 100640 86
2003-04-10 07:04:58 51°14.87 2°54.55 6.5 320 2.6 100640 86
2003-04-10 07:05:04 51°14.89 2°54.54 5.9 322 2.6 100640 86
2003-04-10 07:05:08 51°14.9 2°54.53 5.8 322 2.6 100640 86
2003-04-10 07:05:14 51°14.92 2°54.51 6.5 321 2.6 100640 86
2003-04-10 07:05:18 51°14.93 2°54.5 7.4 323 2.6 100640 86
2003-04-10 07:05:24 51°14.94 2°54.48 6.9 319 2.6 100640 86
2003-04-10 07:05:28 51°14.96 2°54.47 6.9 317 2.6 100640 86
2003-04-10 07:05:34 51°14.97 2°54.45 7.6 322 2.6 100640 86
2003-04-10 07:05:38 51°14.99 2°54.44 7.1 316 2.6 100640 86
2003-04-10 07:05:44 51°15 2°54.43 6.5 311 2.6 100640 86
2003-04-10 07:05:48 51°15.01 2°54.42 6.5 312 2.6 100640 86
2003-04-10 07:05:54 51°15.03 2°54.4 6.7 319 2.6 100640 86
2003-04-10 07:05:58 51°15.04 2°54.39 6.5 315 2.6 100630 86
2003-04-10 07:06:04 51°15.06 2°54.37 6.7 310 2.6 100630 86
2003-04-10 07:06:08 51°15.07 2°54.36 6.1 313 2.6 100630 86
2003-04-10 07:06:14 51°15.09 2°54.34 6.3 306 2.6 100640 86
2003-04-10 07:06:18 51°15.1 2°54.33 6 308 2.6 100640 86
2003-04-10 07:06:24 51°15.12 2°54.31 6.1 310 2.6 100640 86
2003-04-10 07:06:28 51°15.13 2°54.3 5.8 314 2.6 100640 86
2003-04-10 07:06:34 51°15.15 2°54.29 6.1 317 2.6 100640 86
2003-04-10 07:06:38 51°15.16 2°54.27 6.5 317 2.6 100640 85
2003-04-10 07:06:44 51°15.18 2°54.26 7.4 322 2.6 100640 85
2003-04-10 07:06:48 51°15.19 2°54.24 6.7 318 2.6 100640 85
2003-04-10 07:06:54 51°15.21 2°54.23 7.2 319 2.6 100640 86
2003-04-10 07:06:58 51°15.22 2°54.21 6.7 324 2.6 100640 86
2003-04-10 07:07:04 51°15.24 2°54.19 5.7 318 2.6 100630 86
2003-04-10 07:07:08 51°15.25 2°54.18 5.5 329 2.6 100630 86
2003-04-10 07:07:14 51°15.27 2°54.16 7.8 316 2.6 100630 86
2003-04-10 07:07:18 51°15.28 2°54.15 6.9 315 2.6 100630 86
2003-04-10 07:07:24 51°15.3 2°54.13 7.1 316 2.6 100640 86
2003-04-10 07:07:28 51°15.31 2°54.11 6.1 308 2.6 100640 86
2003-04-10 07:07:34 51°15.33 2°54.09 6.5 311 2.6 100650 86
2003-04-10 07:07:38 51°15.34 2°54.08 5.9 312 2.6 100650 86
2003-04-10 07:07:44 51°15.36 2°54.06 5.5 315 2.6 100630 86
2003-04-10 07:07:48 51°15.37 2°54.04 6.6 319 2.6 100630 86
2003-04-10 07:07:54 51°15.39 2°54.02 6.2 326 2.6 100630 86
2003-04-10 07:07:58 51°15.4 2°54.01 7.1 325 2.6 100630 85
2003-04-10 07:08:04 51°15.42 2°53.99 7.6 324 2.6 100630 85
2003-04-10 07:08:08 51°15.43 2°53.98 7.4 320 2.6 100630 85
2003-04-10 07:08:14 51°15.45 2°53.96 7.3 322 2.6 100640 86
2003-04-10 07:08:18 51°15.47 2°53.94 6.3 322 2.6 100640 86
2003-04-10 07:08:24 51°15.49 2°53.92 7.3 318 2.6 100640 86
2003-04-10 07:08:28 51°15.5 2°53.91 7 320 2.6 100630 86
2003-04-10 07:08:34 51°15.52 2°53.89 6.2 315 2.6 100630 86
2003-04-10 07:08:38 51°15.53 2°53.87 6.5 312 2.6 100640 85
2003-04-10 07:08:44 51°15.55 2°53.85 6.8 320 2.6 100640 85
2003-04-10 07:08:48 51°15.56 2°53.84 6.3 321 2.6 100640 85
2003-04-10 07:08:54 51°15.58 2°53.82 5.5 317 2.6 100630 85
2003-04-10 07:08:58 51°15.59 2°53.8 6 326 2.7 100640 86
2003-04-10 07:09:04 51°15.61 2°53.78 7 326 2.7 100640 86
2003-04-10 07:09:08 51°15.63 2°53.77 7.3 324 2.7 100640 86
2003-04-10 07:09:14 51°15.64 2°53.75 6.9 325 2.7 100630 86
2003-04-10 07:09:18 51°15.66 2°53.74 7 325 2.7 100630 86
2003-04-10 07:09:24 51°15.68 2°53.72 7.1 325 2.7 100640 86
2003-04-10 07:09:28 51°15.69 2°53.7 6.6 317 2.7 100640 86
2003-04-10 07:09:34 51°15.71 2°53.68 6.4 322 2.7 100640 86
2003-04-10 07:09:38 51°15.72 2°53.67 6.2 325 2.7 100640 86
2003-04-10 07:09:44 51°15.74 2°53.65 5.8 324 2.7 100640 86
2003-04-10 07:09:48 51°15.75 2°53.63 6.2 323 2.7 100640 86
2003-04-10 07:09:54 51°15.77 2°53.61 6.4 315 2.7 100640 86
2003-04-10 07:09:58 51°15.79 2°53.6 6 320 2.7 100640 86
2003-04-10 07:10:04 51°15.8 2°53.58 6.5 319 2.7 100640 86
2003-04-10 07:10:08 51°15.82 2°53.56 7.2 320 2.7 100640 86
2003-04-10 07:10:14 51°15.84 2°53.54 6.5 320 2.7 100640 86
2003-04-10 07:10:18 51°15.85 2°53.53 6.6 321 2.7 100640 85
2003-04-10 07:10:24 51°15.87 2°53.51 6.7 318 2.7 100640 85
2003-04-10 07:10:28 51°15.88 2°53.49 7.3 318 2.7 100640 85
2003-04-10 07:10:34 51°15.9 2°53.47 7.2 322 2.7 100640 85
2003-04-10 07:10:38 51°15.91 2°53.46 7.1 320 2.7 100640 85
2003-04-10 07:10:44 51°15.93 2°53.44 6.7 318 2.7 100640 85
2003-04-10 07:10:48 51°15.95 2°53.42 6.8 319 2.7 100640 85
2003-04-10 07:10:54 51°15.97 2°53.4 6.5 332 2.7 100640 85
2003-04-10 07:10:58 51°15.98 2°53.39 6.1 329 2.7 100640 85
2003-04-10 07:11:04 51°16 2°53.37 7.1 326 2.7 100640 85
2003-04-10 07:11:08 51°16.01 2°53.36 6.5 326 2.7 100640 85
2003-04-10 07:11:14 51°16.03 2°53.34 6.4 321 2.7 100640 86
2003-04-10 07:11:18 51°16.04 2°53.32 6.6 324 2.8 100640 85
2003-04-10 07:11:24 51°16.06 2°53.3 7.5 323 2.8 100640 85
2003-04-10 07:11:28 51°16.08 2°53.29 7.9 322 2.8 100630 85
2003-04-10 07:11:34 51°16.1 2°53.27 7.4 323 2.8 100630 85
2003-04-10 07:11:38 51°16.11 2°53.26 6.5 315 2.8 100630 85
2003-04-10 07:11:44 51°16.13 2°53.24 7.4 316 2.8 100640 86
2003-04-10 07:11:48 51°16.14 2°53.23 6.5 324 2.8 100640 86
2003-04-10 07:11:54 51°16.16 2°53.21 6.9 331 2.8 100630 86
2003-04-10 07:11:58 51°16.18 2°53.2 6.6 322 2.8 100640 85
2003-04-10 07:12:04 51°16.2 2°53.18 6 333 2.8 100640 85
2003-04-10 07:12:08 51°16.21 2°53.17 6.9 325 2.8 100640 85
2003-04-10 07:12:14 51°16.23 2°53.15 7.6 322 2.9 100630 86
2003-04-10 07:12:18 51°16.25 2°53.14 7.4 316 2.9 100630 86
2003-04-10 07:12:24 51°16.27 2°53.12 6.6 322 2.8 100640 86
2003-04-10 07:12:28 51°16.28 2°53.11 7.1 325 2.8 100640 86
2003-04-10 07:12:34 51°16.3 2°53.09 6.8 327 2.8 100640 86
2003-04-10 07:12:38 51°16.32 2°53.08 7.4 329 2.9 100630 86
2003-04-10 07:12:44 51°16.34 2°53.06 7 330 2.9 100630 86
2003-04-10 07:12:48 51°16.35 2°53.05 7.1 325 2.9 100640 86
2003-04-10 07:12:54 51°16.37 2°53.03 7.3 335 2.9 100640 86
2003-04-10 07:12:58 51°16.39 2°53.02 6.9 327 2.9 100640 86
2003-04-10 07:13:04 51°16.41 2°53.01 6.7 329 2.9 100640 86
2003-04-10 07:13:08 51°16.42 2°52.99 6.5 333 2.9 100630 86
2003-04-10 07:13:14 51°16.44 2°52.98 6.2 329 2.9 100630 86
2003-04-10 07:13:18 51°16.45 2°52.97 6.6 333 2.9 100630 86
2003-04-10 07:13:24 51°16.47 2°52.95 6.3 328 2.9 100640 86
2003-04-10 07:13:28 51°16.49 2°52.94 6.7 332 2.9 100640 86
2003-04-10 07:13:34 51°16.51 2°52.92 6.7 329 2.9 100640 86
2003-04-10 07:13:38 51°16.52 2°52.91 6.6 331 2.9 100640 86
2003-04-10 07:13:44 51°16.54 2°52.89 6.4 330 2.9 100640 86
2003-04-10 07:13:48 51°16.56 2°52.88 6.9 329 2.9 100640 86
2003-04-10 07:13:54 51°16.58 2°52.87 6.6 328 2.9 100640 86
2003-04-10 07:13:58 51°16.59 2°52.86 6.6 323 2.9 100640 86
2003-04-10 07:14:04 51°16.61 2°52.84 6.8 320 2.9 100640 86
2003-04-10 07:14:08 51°16.62 2°52.83 7.4 320 2.9 100640 86
2003-04-10 07:14:14 51°16.64 2°52.81 5.9 320 2.9 100650 86
2003-04-10 07:14:18 51°16.66 2°52.8 5.9 317 2.9 100640 86
2003-04-10 07:14:24 51°16.68 2°52.78 6.7 318 2.9 100640 86
2003-04-10 07:14:28 51°16.69 2°52.77 6.8 326 2.9 100640 86
2003-04-10 07:14:34 51°16.71 2°52.76 5.9 320 2.9 100640 86
2003-04-10 07:14:38 51°16.73 2°52.75 6.1 328 2.9 100640 86
2003-04-10 07:14:44 51°16.75 2°52.73 6.4 323 2.9 100640 86
2003-04-10 07:14:48 51°16.76 2°52.72 5.4 329 2.9 100640 86
2003-04-10 07:14:54 51°16.78 2°52.71 6.9 326 3 100630 86
2003-04-10 07:14:58 51°16.8 2°52.7 6.6 326 3 100650 86
2003-04-10 07:15:04 51°16.82 2°52.68 6.4 330 3 100650 86
2003-04-10 07:15:08 51°16.83 2°52.67 6.9 324 3 100650 86
2003-04-10 07:15:14 51°16.85 2°52.66 6.8 315 3 100640 86
2003-04-10 07:15:18 51°16.87 2°52.65 7 320 3 100640 86
2003-04-10 07:15:24 51°16.89 2°52.64 7.5 324 3.1 100640 86
2003-04-10 07:15:28 51°16.91 2°52.63 7.2 322 3.1 100640 86
2003-04-10 07:15:34 51°16.93 2°52.62 6.4 317 3 100640 86
2003-04-10 07:15:38 51°16.94 2°52.61 6.7 318 3 100640 86
2003-04-10 07:15:44 51°16.97 2°52.6 7.4 323 3 100640 86
2003-04-10 07:15:48 51°16.98 2°52.59 8 323 3 100640 86
2003-04-10 07:15:54 51°17 2°52.58 7.4 327 3 100640 86
2003-04-10 07:15:58 51°17.02 2°52.57 8.4 328 2.9 100640 86
2003-04-10 07:16:04 51°17.04 2°52.56 9.6 328 2.9 100640 86
2003-04-10 07:16:08 51°17.06 2°52.56 9.8 326 2.9 100630 86
2003-04-10 07:16:14 51°17.08 2°52.55 7.8 324 2.9 100630 86
2003-04-10 07:16:18 51°17.1 2°52.54 7.8 327 3 100640 86
2003-04-10 07:16:24 51°17.12 2°52.54 8.2 326 3 100640 86
2003-04-10 07:16:28 51°17.13 2°52.53 8.6 327 3 100640 86
2003-04-10 07:16:34 51°17.16 2°52.53 8.1 329 2.9 100640 86
2003-04-10 07:16:38 51°17.17 2°52.52 8.2 327 2.9 100630 86
2003-04-10 07:16:44 51°17.2 2°52.52 7.8 325 2.9 100630 86
2003-04-10 07:16:48 51°17.21 2°52.51 8.5 328 3 100630 85
2003-04-10 07:16:54 51°17.24 2°52.51 7.1 325 3 100630 85
2003-04-10 07:16:58 51°17.25 2°52.5 7.7 328 3 100630 85
2003-04-10 07:17:04 51°17.27 2°52.5 8 325 3 100640 85
2003-04-10 07:17:08 51°17.29 2°52.49 8 325 3 100640 85
2003-04-10 07:17:14 51°17.31 2°52.49 7.7 324 3 100640 85
2003-04-10 07:17:18 51°17.33 2°52.48 7.7 329 3 100650 85
2003-04-10 07:17:24 51°17.35 2°52.48 7.4 328 3 100650 85
2003-04-10 07:17:28 51°17.37 2°52.47 7 327 3 100630 85
2003-04-10 07:17:34 51°17.39 2°52.47 7.2 325 3 100630 85
2003-04-10 07:17:38 51°17.41 2°52.46 7.4 325 3 100630 85
2003-04-10 07:17:44 51°17.43 2°52.46 7.7 329 3 100630 85
2003-04-10 07:17:48 51°17.45 2°52.45 7.9 327 3 100630 85
2003-04-10 07:17:54 51°17.47 2°52.45 8 317 3 100630 85
2003-04-10 07:17:58 51°17.49 2°52.44 8.1 323 3 100630 85
2003-04-10 07:18:04 51°17.51 2°52.44 8.1 329 3 100640 85
2003-04-10 07:18:08 51°17.53 2°52.43 7.7 327 3 100640 85
2003-04-10 07:18:14 51°17.55 2°52.43 8.8 333 3 100640 85
2003-04-10 07:18:18 51°17.57 2°52.43 7.9 326 3 100640 85
2003-04-10 07:18:24 51°17.59 2°52.42 8.1 333 3 100640 85
2003-04-10 07:18:28 51°17.6 2°52.42 7.9 336 3 100640 85
2003-04-10 07:18:34 51°17.63 2°52.41 7.9 330 3 100640 85
2003-04-10 07:18:38 51°17.64 2°52.41 7.5 335 3 100630 85
2003-04-10 07:18:44 51°17.67 2°52.41 9.3 340 3 100630 85
2003-04-10 07:18:48 51°17.68 2°52.41 9.4 329 3 100630 85
2003-04-10 07:18:54 51°17.71 2°52.4 9.8 329 3 100630 85
2003-04-10 07:18:58 51°17.72 2°52.4 9.5 337 3 100640 85
2003-04-10 07:19:04 51°17.75 2°52.4 10.2 333 3 100640 85
2003-04-10 07:19:08 51°17.76 2°52.4 9.7 330 3 100630 85
2003-04-10 07:19:14 51°17.79 2°52.4 9.4 324 3 100630 85
2003-04-10 07:19:18 51°17.8 2°52.4 9.8 324 3 100640 85
2003-04-10 07:19:24 51°17.83 2°52.4 9 329 3 100640 85
2003-04-10 07:19:28 51°17.84 2°52.4 9.2 333 3 100640 85
2003-04-10 07:19:34 51°17.87 2°52.4 9.5 332 3.1 100630 85
2003-04-10 07:19:38 51°17.88 2°52.4 9.1 339 3.1 100630 85
2003-04-10 07:19:44 51°17.91 2°52.4 9.5 341 3.1 100630 85
2003-04-10 07:19:48 51°17.92 2°52.4 10.6 333 3.1 100640 85
2003-04-10 07:19:54 51°17.95 2°52.41 11.1 329 3.1 100640 85
2003-04-10 07:19:58 51°17.96 2°52.41 11 324 3.1 100640 85
2003-04-10 07:20:04 51°17.98 2°52.42 12.3 325 3.1 100630 85
2003-04-10 07:20:08 51°18 2°52.42 10.9 324 3.1 100630 85
2003-04-10 07:20:14 51°18.02 2°52.43 11.3 327 3.2 100640 85
2003-04-10 07:20:18 51°18.04 2°52.43 10.7 325 3.2 100640 85
2003-04-10 07:20:24 51°18.06 2°52.44 10.7 330 3.2 100630 85
2003-04-10 07:20:28 51°18.08 2°52.45 10.4 331 3.2 100620 85
2003-04-10 07:20:34 51°18.1 2°52.46 9.4 338 3.2 100620 85
2003-04-10 07:20:38 51°18.11 2°52.47 9.9 337 3.2 100630 85
2003-04-10 07:20:44 51°18.14 2°52.49 10.2 336 3.2 100630 85
2003-04-10 07:20:48 51°18.15 2°52.5 10.6 340 3.2 100640 85
2003-04-10 07:20:54 51°18.17 2°52.52 8.8 327 3.2 100640 85
2003-04-10 07:20:58 51°18.19 2°52.53 10.5 334 3.2 100640 85
2003-04-10 07:21:04 51°18.21 2°52.55 10.4 336 3.2 100640 85
2003-04-10 07:21:08 51°18.22 2°52.57 9.7 333 3.3 100640 85
2003-04-10 07:21:14 51°18.24 2°52.59 8.5 335 3.3 100640 85
2003-04-10 07:21:18 51°18.25 2°52.6 9.1 335 3.3 100640 85
2003-04-10 07:21:24 51°18.27 2°52.62 9.8 339 3.3 100640 85
2003-04-10 07:21:28 51°18.29 2°52.64 10.3 338 3.3 100640 85
2003-04-10 07:21:34 51°18.31 2°52.66 11 341 3.3 100630 85
2003-04-10 07:21:38 51°18.32 2°52.67 10.1 339 3.3 100640 85
2003-04-10 07:21:44 51°18.34 2°52.69 9.7 341 3.3 100640 85
2003-04-10 07:21:48 51°18.35 2°52.71 10.2 339 3.3 100630 85
2003-04-10 07:21:54 51°18.37 2°52.73 9.6 335 3.3 100630 85
2003-04-10 07:21:58 51°18.39 2°52.74 11.1 342 3.3 100630 85
2003-04-10 07:22:04 51°18.41 2°52.77 11.2 338 3.3 100640 85
2003-04-10 07:22:08 51°18.42 2°52.78 11.6 340 3.3 100640 85
2003-04-10 07:22:14 51°18.44 2°52.8 11.9 338 3.3 100640 85
2003-04-10 07:22:18 51°18.45 2°52.82 12.5 338 3.3 100650 85
2003-04-10 07:22:24 51°18.47 2°52.84 12.3 346 3.3 100650 85
2003-04-10 07:22:28 51°18.48 2°52.86 13 344 3.3 100650 85
2003-04-10 07:22:34 51°18.5 2°52.88 13.5 344 3.3 100650 85
2003-04-10 07:22:38 51°18.52 2°52.9 12.3 343 3.3 100650 85
2003-04-10 07:22:44 51°18.53 2°52.92 13.6 344 3.3 100640 85
2003-04-10 07:22:48 51°18.55 2°52.94 12.2 346 3.3 100640 84
2003-04-10 07:22:54 51°18.57 2°52.96 12.1 346 3.3 100640 84
2003-04-10 07:22:58 51°18.58 2°52.98 12.6 343 3.3 100640 84
2003-04-10 07:23:04 51°18.6 2°53 12.8 339 3.3 100640 84
2003-04-10 07:23:08 51°18.61 2°53.02 10.9 339 3.2 100630 84
2003-04-10 07:23:14 51°18.63 2°53.04 12.6 342 3.2 100630 84
2003-04-10 07:23:18 51°18.64 2°53.06 13.5 332 3.2 100640 83
2003-04-10 07:23:24 51°18.66 2°53.08 13.1 335 3.2 100640 83
2003-04-10 07:23:28 51°18.67 2°53.1 13.4 337 3.3 100630 83
2003-04-10 07:23:34 51°18.69 2°53.12 12.6 339 3.3 100630 83
2003-04-10 07:23:38 51°18.7 2°53.14 13.8 345 3.3 100630 83
2003-04-10 07:23:44 51°18.72 2°53.16 12.7 344 3.3 100630 83
2003-04-10 07:23:48 51°18.74 2°53.18 14.5 343 3.3 100630 83
2003-04-10 07:23:54 51°18.75 2°53.2 14.1 346 3.3 100630 82
2003-04-10 07:23:58 51°18.77 2°53.22 14.1 343 3.3 100640 82
2003-04-10 07:24:04 51°18.78 2°53.24 13.9 342 3.3 100640 82
2003-04-10 07:24:08 51°18.79 2°53.26 12.1 347 3.3 100640 82
2003-04-10 07:24:14 51°18.81 2°53.29 13 345 3.3 100640 82
2003-04-10 07:24:18 51°18.82 2°53.31 14 344 3.4 100630 82
2003-04-10 07:24:24 51°18.84 2°53.34 12.3 342 3.4 100630 82
2003-04-10 07:24:28 51°18.85 2°53.36 12.4 346 3.4 100630 82
2003-04-10 07:24:34 51°18.86 2°53.39 12.7 347 3.4 100640 81
2003-04-10 07:24:38 51°18.87 2°53.4 13.4 344 3.4 100620 81
2003-04-10 07:24:44 51°18.89 2°53.43 13.5 344 3.4 100620 81
2003-04-10 07:24:48 51°18.9 2°53.45 13 347 3.4 100640 80
2003-04-10 07:24:54 51°18.92 2°53.48 13.9 346 3.4 100640 80
2003-04-10 07:24:58 51°18.93 2°53.5 14 348 3.4 100640 80
2003-04-10 07:25:04 51°18.94 2°53.53 13.2 347 3.4 100630 80
2003-04-10 07:25:08 51°18.95 2°53.55 13.6 350 3.4 100630 80
2003-04-10 07:25:14 51°18.97 2°53.58 13.8 345 3.4 100630 80
2003-04-10 07:25:18 51°18.98 2°53.6 13.7 347 3.4 100630 80
2003-04-10 07:25:24 51°18.99 2°53.63 12.7 346 3.4 100630 80
2003-04-10 07:25:28 51°19 2°53.65 12.8 350 3.4 100630 79
2003-04-10 07:25:34 51°19.02 2°53.68 14.1 347 3.4 100630 79
2003-04-10 07:25:38 51°19.03 2°53.7 13.1 354 3.4 100630 79
2003-04-10 07:25:44 51°19.05 2°53.73 11.3 349 3.4 100630 79
2003-04-10 07:25:48 51°19.06 2°53.74 12.6 351 3.4 100630 79
2003-04-10 07:25:54 51°19.07 2°53.77 13.2 343 3.4 100630 79
2003-04-10 07:25:58 51°19.08 2°53.79 13.6 350 3.4 100640 78
2003-04-10 07:26:04 51°19.1 2°53.82 13.8 345 3.4 100640 78
2003-04-10 07:26:08 51°19.11 2°53.84 13.3 346 3.4 100640 78
2003-04-10 07:26:14 51°19.13 2°53.87 11.7 345 3.5 100650 78
2003-04-10 07:26:18 51°19.14 2°53.89 13.2 342 3.5 100640 79
2003-04-10 07:26:24 51°19.15 2°53.91 13.6 353 3.5 100640 79
2003-04-10 07:26:28 51°19.16 2°53.93 13.2 352 3.5 100620 78
2003-04-10 07:26:34 51°19.18 2°53.96 12.7 358 3.5 100620 78
2003-04-10 07:26:38 51°19.18 2°53.99 12 351 3.5 100630 78
2003-04-10 07:26:44 51°19.2 2°54.02 14.8 347 3.5 100630 78
2003-04-10 07:26:48 51°19.2 2°54.04 13.5 360 3.5 100630 78
2003-04-10 07:26:54 51°19.22 2°54.07 13 357 3.5 100620 78
2003-04-10 07:26:58 51°19.22 2°54.1 14.2 358 3.5 100640 78
2003-04-10 07:27:04 51°19.23 2°54.13 13.2 358 3.5 100640 78
2003-04-10 07:27:08 51°19.24 2°54.15 12.8   3.6 100640 78
2003-04-10 07:27:14 51°19.25 2°54.19 13.2 3 3.6 100640 78
2003-04-10 07:27:18 51°19.26 2°54.21 13.2 1 3.6 100640 78
2003-04-10 07:27:24 51°19.27 2°54.24 13.5 360 3.6 100640 78
2003-04-10 07:27:28 51°19.27 2°54.27 13.3 357 3.6 100640 78
2003-04-10 07:27:34 51°19.28 2°54.3 13.7 349 3.6 100640 78
2003-04-10 07:27:38 51°19.29 2°54.32 13.3 354 3.6 100620 78
2003-04-10 07:27:44 51°19.3 2°54.36 13 354 3.6 100620 78
2003-04-10 07:27:48 51°19.31 2°54.38 12.7 355 3.6 100630 78
2003-04-10 07:27:54 51°19.32 2°54.42 14.1 354 3.6 100630 78
2003-04-10 07:27:58 51°19.33 2°54.44 13.2 356 3.6 100630 78
2003-04-10 07:28:04 51°19.34 2°54.47 13.2 354 3.6 100620 78
2003-04-10 07:28:08 51°19.34 2°54.49 13.3 357 3.6 100630 77
2003-04-10 07:28:14 51°19.35 2°54.53 13.8 358 3.6 100630 77
2003-04-10 07:28:18 51°19.36 2°54.55 14.8 350 3.6 100630 77
2003-04-10 07:28:24 51°19.37 2°54.59 13.3 355 3.6 100630 77
2003-04-10 07:28:28 51°19.38 2°54.61 13.8 351 3.5 100630 77
2003-04-10 07:28:34 51°19.39 2°54.64 15.3 349 3.5 100630 77
2003-04-10 07:28:38 51°19.39 2°54.67 14.7 357 3.6 100630 77
2003-04-10 07:28:44 51°19.4 2°54.7 14.2 359 3.6 100630 77
2003-04-10 07:28:48 51°19.41 2°54.72 14 357 3.5 100620 77
2003-04-10 07:28:54 51°19.42 2°54.76 14.6 355 3.5 100620 77
2003-04-10 07:28:58 51°19.43 2°54.78 14.3 353 3.6 100640 77
2003-04-10 07:29:04 51°19.44 2°54.81 13.7 357 3.6 100640 77
2003-04-10 07:29:08 51°19.45 2°54.84 14.5 353 3.6 100640 77
2003-04-10 07:29:14 51°19.46 2°54.87 13.9 355 3.6 100630 77
2003-04-10 07:29:18 51°19.46 2°54.89 13.9 355 3.6 100630 77
2003-04-10 07:29:24 51°19.48 2°54.93 12.8 350 3.6 100630 77
2003-04-10 07:29:28 51°19.48 2°54.95 13.6 354 3.6 100630 77
2003-04-10 07:29:34 51°19.49 2°54.98 14.1 354 3.6 100630 77
2003-04-10 07:29:38 51°19.5 2°55 13.7 357 3.5 100640 76
2003-04-10 07:29:44 51°19.51 2°55.04 13.9 353 3.5 100640 76
2003-04-10 07:29:48 51°19.52 2°55.06 13.7 359 3.5 100640 76
2003-04-10 07:29:54 51°19.53 2°55.1 13.3 357 3.6 100640 76
2003-04-10 07:29:58 51°19.53 2°55.12 14.1 358 3.6 100640 76
2003-04-10 07:30:04 51°19.54 2°55.15 14.5   3.6 100640 76
2003-04-10 07:30:08 51°19.55 2°55.18 13.4 360 3.6 100640 76
2003-04-10 07:30:14 51°19.56 2°55.21 12.8   3.6 100640 76
2003-04-10 07:30:18 51°19.57 2°55.23 13.6 360 3.6 100640 76
2003-04-10 07:30:24 51°19.58 2°55.27 13.6 3 3.6 100640 76
2003-04-10 07:30:28 51°19.58 2°55.29 12.6 358 3.6 100640 76
2003-04-10 07:30:34 51°19.59 2°55.32 12.9 1 3.5 100630 76
2003-04-10 07:30:38 51°19.6 2°55.35 12.9   3.6 100630 76
2003-04-10 07:30:44 51°19.61 2°55.38 12.9 2 3.6 100630 76
2003-04-10 07:30:48 51°19.62 2°55.4 12.6 1 3.6 100610 76
2003-04-10 07:30:54 51°19.63 2°55.44 12.3 2 3.6 100610 76
2003-04-10 07:30:58 51°19.63 2°55.46 13.6 6 3.6 100620 76
2003-04-10 07:31:04 51°19.64 2°55.5 13 360 3.6 100620 76
2003-04-10 07:31:08 51°19.65 2°55.52 12.5 351 3.6 100640 76
2003-04-10 07:31:14 51°19.66 2°55.55 13.6 356 3.6 100640 76
2003-04-10 07:31:18 51°19.67 2°55.58 14.8 360 3.6 100620 76
2003-04-10 07:31:24 51°19.68 2°55.61 14.9 359 3.6 100620 76
2003-04-10 07:31:28 51°19.68 2°55.63 14 5 3.6 100620 77
2003-04-10 07:31:34 51°19.69 2°55.67 13.6 7 3.6 100620 77
2003-04-10 07:31:38 51°19.7 2°55.69 14.4 6 3.6 100630 77
2003-04-10 07:31:44 51°19.71 2°55.73 12.8 4 3.6 100630 77
2003-04-10 07:31:48 51°19.71 2°55.75 13.5 5 3.6 100630 77
2003-04-10 07:31:54 51°19.72 2°55.79 14.2 2 3.6 100630 77
2003-04-10 07:31:58 51°19.73 2°55.81 12.5 4 3.6 100620 76
2003-04-10 07:32:04 51°19.73 2°55.85 12.9 2 3.6 100620 76
2003-04-10 07:32:08 51°19.74 2°55.87 14.3 8 3.6 100620 76
2003-04-10 07:32:14 51°19.75 2°55.91 12.5 8 3.6 100630 76
2003-04-10 07:32:18 51°19.75 2°55.93 13.1 5 3.6 100620 76
2003-04-10 07:32:24 51°19.76 2°55.96 12.8 4 3.6 100620 76
2003-04-10 07:32:28 51°19.76 2°55.99 13.3 8 3.6 100620 76
2003-04-10 07:32:34 51°19.77 2°56.02 13.3 3 3.6 100620 76
2003-04-10 07:32:38 51°19.78 2°56.05 13.3 9 3.6 100630 76
2003-04-10 07:32:44 51°19.78 2°56.08 13.3 9 3.6 100630 76
2003-04-10 07:32:48 51°19.79 2°56.11 12.6 5 3.6 100630 76
2003-04-10 07:32:54 51°19.8 2°56.14 13.6 3 3.6 100620 76
2003-04-10 07:32:58 51°19.8 2°56.17 12.2 4 3.6 100630 76
2003-04-10 07:33:04 51°19.81 2°56.2 12 1 3.6 100630 76
2003-04-10 07:33:08 51°19.81 2°56.23 13.7 1 3.5 100630 76
2003-04-10 07:33:14 51°19.82 2°56.26 12.8 3 3.5 100630 76
2003-04-10 07:33:18 51°19.83 2°56.29 12.5 2 3.6 100630 76
2003-04-10 07:33:24 51°19.83 2°56.32 12.3 6 3.6 100630 76
2003-04-10 07:33:28 51°19.84 2°56.34 11.5 1 3.6 100620 76
2003-04-10 07:33:34 51°19.85 2°56.38 12.5 3 3.6 100620 76
2003-04-10 07:33:38 51°19.85 2°56.4 12.9 2 3.5 100640 76
2003-04-10 07:33:44 51°19.86 2°56.44 12.1   3.5 100640 76
2003-04-10 07:33:48 51°19.87 2°56.46 11.8 3 3.6 100630 76
2003-04-10 07:33:54 51°19.87 2°56.5 12.3 3 3.6 100630 76
2003-04-10 07:33:58 51°19.88 2°56.52 12.1 3 3.5 100640 76
2003-04-10 07:34:04 51°19.89 2°56.56 13.4 360 3.5 100640 76
2003-04-10 07:34:08 51°19.89 2°56.58 12.7 3 3.6 100650 76
2003-04-10 07:34:14 51°19.9 2°56.62 15 5 3.6 100650 76
2003-04-10 07:34:18 51°19.91 2°56.64 15.2 1 3.5 100630 76
2003-04-10 07:34:24 51°19.91 2°56.68 14.1 1 3.5 100630 76
2003-04-10 07:34:28 51°19.92 2°56.7 13.8   3.5 100630 76
2003-04-10 07:34:34 51°19.93 2°56.74 14.3 357 3.5 100630 76
2003-04-10 07:34:38 51°19.93 2°56.76 14.8 1 3.5 100630 76
2003-04-10 07:34:44 51°19.94 2°56.79 14.4 359 3.5 100630 76
2003-04-10 07:34:48 51°19.95 2°56.82 13.6 359 3.5 100620 76
2003-04-10 07:34:54 51°19.95 2°56.85 13.8 359 3.5 100620 76
2003-04-10 07:34:58 51°19.96 2°56.88 15.3 357 3.5 100630 76
2003-04-10 07:35:04 51°19.97 2°56.91 14.5 1 3.5 100630 76
2003-04-10 07:35:08 51°19.97 2°56.94 14.6 2 3.5 100630 76
2003-04-10 07:35:14 51°19.98 2°56.97 14.8 5 3.5 100630 76
2003-04-10 07:35:18 51°19.98 2°57 14.7 4 3.5 100630 75
2003-04-10 07:35:24 51°19.99 2°57.03 14.7 6 3.5 100630 75
2003-04-10 07:35:28 51°20 2°57.06 14.7 360 3.5 100640 76
2003-04-10 07:35:34 51°20.01 2°57.09 15.1 359 3.5 100640 76
2003-04-10 07:35:38 51°20.01 2°57.12 13.5 1 3.5 100630 76
2003-04-10 07:35:44 51°20.02 2°57.15 14.4 4 3.5 100630 76
2003-04-10 07:35:48 51°20.02 2°57.17 12.9 1 3.6 100630 76
2003-04-10 07:35:54 51°20.03 2°57.21 13.3 359 3.6 100630 76
2003-04-10 07:35:58 51°20.04 2°57.23 13.9 2 3.6 100630 76
2003-04-10 07:36:04 51°20.04 2°57.27 14.3 5 3.6 100630 76
2003-04-10 07:36:08 51°20.05 2°57.29 14.9 10 3.6 100630 76
2003-04-10 07:36:14 51°20.06 2°57.33 13.9 8 3.6 100630 76
2003-04-10 07:36:18 51°20.06 2°57.35 12.8 6 3.6 100640 76
2003-04-10 07:36:24 51°20.07 2°57.39 13.1 6 3.6 100640 76
2003-04-10 07:36:28 51°20.08 2°57.41 14 358 3.6 100640 76
2003-04-10 07:36:34 51°20.08 2°57.45 14.1 4 3.6 100620 76
2003-04-10 07:36:38 51°20.09 2°57.47 14.1 1 3.6 100630 76
2003-04-10 07:36:44 51°20.1 2°57.51 12.6 4 3.6 100630 76
2003-04-10 07:36:48 51°20.1 2°57.53 13.2 1 3.6 100620 76
2003-04-10 07:36:54 51°20.11 2°57.57 13.7 3 3.6 100620 76
2003-04-10 07:36:58 51°20.12 2°57.59 13.6 1 3.6 100640 76
2003-04-10 07:37:04 51°20.12 2°57.62 13.9 2 3.6 100640 76
2003-04-10 07:37:08 51°20.13 2°57.65 13.7 14 3.6 100630 76
2003-04-10 07:37:14 51°20.14 2°57.68 14.6 12 3.6 100630 76
2003-04-10 07:37:18 51°20.14 2°57.71 14.7 4 3.6 100650 76
2003-04-10 07:37:24 51°20.15 2°57.74 15 15 3.6 100650 76
2003-04-10 07:37:28 51°20.15 2°57.77 15.7 9 3.6 100630 76
2003-04-10 07:37:34 51°20.16 2°57.8 15.5 11 3.6 100630 76
2003-04-10 07:37:38 51°20.17 2°57.83 15 8 3.6 100630 76
2003-04-10 07:37:44 51°20.18 2°57.86 15.6 9 3.6 100620 76
2003-04-10 07:37:48 51°20.18 2°57.89 12.9 11 3.7 100620 77
2003-04-10 07:37:54 51°20.19 2°57.92 14.7 359 3.7 100620 77
2003-04-10 07:37:58 51°20.19 2°57.94 14 359 3.7 100610 77
2003-04-10 07:38:04 51°20.2 2°57.98 13 358 3.7 100610 77
2003-04-10 07:38:08 51°20.21 2°58 14.5 358 3.7 100620 77
2003-04-10 07:38:14 51°20.22 2°58.04 14.5 2 3.7 100620 77
2003-04-10 07:38:18 51°20.22 2°58.06 13.5 1 3.7 100620 77
2003-04-10 07:38:24 51°20.23 2°58.1 12.9 4 3.7 100630 77
2003-04-10 07:38:28 51°20.23 2°58.12 13.6 359 3.7 100640 77
2003-04-10 07:38:34 51°20.24 2°58.16 13.1 3 3.7 100640 77
2003-04-10 07:38:38 51°20.25 2°58.18 14.4 3 3.7 100630 76
2003-04-10 07:38:44 51°20.26 2°58.22 13.4 3 3.7 100630 76
2003-04-10 07:38:48 51°20.26 2°58.24 13.5 356 3.7 100630 76
2003-04-10 07:38:54 51°20.27 2°58.28 15.7 359 3.7 100640 76
2003-04-10 07:38:58 51°20.27 2°58.3 14.7 358 3.7 100630 76
2003-04-10 07:39:04 51°20.28 2°58.34 13.8 1 3.7 100630 76
2003-04-10 07:39:08 51°20.29 2°58.36 14.2 2 3.7 100630 77
2003-04-10 07:39:14 51°20.3 2°58.39 13.2 359 3.7 100630 77
2003-04-10 07:39:18 51°20.3 2°58.42 14.2 2 3.7 100640 76
2003-04-10 07:39:24 51°20.31 2°58.45 15.1 352 3.7 100640 76
2003-04-10 07:39:28 51°20.32 2°58.48 15.1 2 3.7 100640 76
2003-04-10 07:39:34 51°20.32 2°58.51 14.8 360 3.7 100640 76
2003-04-10 07:39:38 51°20.33 2°58.54 14.5 4 3.7 100630 77
2003-04-10 07:39:44 51°20.34 2°58.57 13.6 359 3.7 100630 77
2003-04-10 07:39:48 51°20.34 2°58.59 14.5 359 3.7 100630 77
2003-04-10 07:39:54 51°20.35 2°58.63 14.7 358 3.7 100630 77
2003-04-10 07:39:58 51°20.36 2°58.65 15.5 357 3.7 100630 76
2003-04-10 07:40:04 51°20.36 2°58.69 14.6 357 3.7 100630 76
2003-04-10 07:40:08 51°20.37 2°58.71 14 355 3.7 100640 76
2003-04-10 07:40:14 51°20.38 2°58.75 14.7   3.7 100640 76
2003-04-10 07:40:18 51°20.38 2°58.77 15.5 2 3.7 100640 75
2003-04-10 07:40:24 51°20.39 2°58.81 15.1 353 3.7 100640 75
2003-04-10 07:40:28 51°20.4 2°58.83 14.8 356 3.7 100630 75
2003-04-10 07:40:34 51°20.41 2°58.86 14.5 354 3.7 100630 75
2003-04-10 07:40:38 51°20.41 2°58.89 15.5 358 3.7 100630 75
2003-04-10 07:40:44 51°20.42 2°58.92 14.4 358 3.7 100630 75
2003-04-10 07:40:48 51°20.42 2°58.95 15.2   3.7 100640 75
2003-04-10 07:40:54 51°20.43 2°58.98 14.7 4 3.7 100640 75
2003-04-10 07:40:58 51°20.44 2°59.01 14.1 2 3.7 100630 75
2003-04-10 07:41:04 51°20.45 2°59.04 13.2 359 3.7 100630 75
2003-04-10 07:41:08 51°20.45 2°59.06 14.2 1 3.8 100640 75
2003-04-10 07:41:14 51°20.46 2°59.1 13.9 360 3.8 100640 75
2003-04-10 07:41:18 51°20.47 2°59.12 14.9 357 3.7 100630 74
2003-04-10 07:41:24 51°20.47 2°59.16 14.8 2 3.7 100630 74
2003-04-10 07:41:28 51°20.48 2°59.18 14.5 359 3.7 100630 74
2003-04-10 07:41:34 51°20.49 2°59.22 14 360 3.7 100630 74
2003-04-10 07:41:38 51°20.49 2°59.24 13.9 4 3.8 100630 75
2003-04-10 07:41:44 51°20.5 2°59.27 13.5 3 3.8 100630 75
2003-04-10 07:41:48 51°20.51 2°59.3 13.9 4 3.8 100630 75
2003-04-10 07:41:54 51°20.51 2°59.33 13.4 3 3.7 100640 74
2003-04-10 07:41:58 51°20.52 2°59.36 14.5 3 3.7 100620 74
2003-04-10 07:42:04 51°20.53 2°59.39 14.2 6 3.7 100620 74
2003-04-10 07:42:08 51°20.53 2°59.41 13.8 7 3.7 100630 74
2003-04-10 07:42:14 51°20.54 2°59.45 13.4 5 3.7 100630 74
2003-04-10 07:42:18 51°20.55 2°59.47 13.3 4 3.7 100630 74
2003-04-10 07:42:24 51°20.55 2°59.51 13.6   3.7 100640 74
2003-04-10 07:42:28 51°20.56 2°59.53 12.1 358 3.7 100640 74
2003-04-10 07:42:34 51°20.57 2°59.57 13.6 356 3.7 100630 74
2003-04-10 07:42:38 51°20.57 2°59.59 13.8   3.7 100640 74
2003-04-10 07:42:44 51°20.58 2°59.63 13.9 1 3.7 100640 74
2003-04-10 07:42:48 51°20.59 2°59.65 13.4 360 3.8 100640 75
2003-04-10 07:42:54 51°20.59 2°59.68 13.2 359 3.8 100640 75
2003-04-10 07:42:58 51°20.6 2°59.71 13.9 1 3.8 100640 75
2003-04-10 07:43:04 51°20.61 2°59.74 13.9 359 3.8 100640 75
2003-04-10 07:43:08 51°20.61 2°59.76 13.8 2 3.8 100650 75
2003-04-10 07:43:14 51°20.62 2°59.8 13.1 358 3.8 100650 75
2003-04-10 07:43:18 51°20.63 2°59.82 13.7 359 3.8 100650 74
2003-04-10 07:43:24 51°20.63 2°59.86 14   3.8 100650 74
2003-04-10 07:43:28 51°20.64 2°59.88 12.9 360 3.7 100640 74
2003-04-10 07:43:34 51°20.65 2°59.92 12.5 357 3.7 100640 74
2003-04-10 07:43:38 51°20.65 2°59.94 13.5 2 3.7 100650 74
2003-04-10 07:43:44 51°20.66 2°59.97 13.2 355 3.7 100650 74
2003-04-10 07:43:48 51°20.67 3°0 13.2 354 3.7 100640 74
2003-04-10 07:43:54 51°20.67 3°0.03 14.5 356 3.7 100640 74
2003-04-10 07:43:58 51°20.68 3°0.06 14 2 3.7 100650 74
2003-04-10 07:44:04 51°20.69 3°0.09 14.1 3 3.7 100650 74
2003-04-10 07:44:08 51°20.69 3°0.12 13.9 5 3.7 100650 74
2003-04-10 07:44:14 51°20.7 3°0.15 12.5 359 3.7 100650 74
2003-04-10 07:44:18 51°20.71 3°0.17 12.1 357 3.7 100640 75
2003-04-10 07:44:24 51°20.72 3°0.21 13 357 3.7 100640 75
2003-04-10 07:44:28 51°20.72 3°0.23 12.7 358 3.7 100630 74
2003-04-10 07:44:34 51°20.73 3°0.27 13.3 357 3.7 100630 74
2003-04-10 07:44:38 51°20.73 3°0.29 13 359 3.7 100640 74
2003-04-10 07:44:44 51°20.74 3°0.33 14.4 1 3.7 100640 74
2003-04-10 07:44:48 51°20.75 3°0.35 13.4 2 3.7 100650 74
2003-04-10 07:44:54 51°20.76 3°0.39 13.3 355 3.7 100650 74
2003-04-10 07:44:58 51°20.76 3°0.41 14.1 2 3.7 100650 74
2003-04-10 07:45:04 51°20.77 3°0.45 12.5 357 3.7 100650 74
2003-04-10 07:45:08 51°20.78 3°0.47 13.7 356 3.7 100650 74
2003-04-10 07:45:14 51°20.78 3°0.5 16.2   3.7 100650 74
2003-04-10 07:45:18 51°20.79 3°0.53 16 1 3.7 100650 74
2003-04-10 07:45:24 51°20.8 3°0.56 15.5 359 3.7 100650 74
2003-04-10 07:45:28 51°20.8 3°0.59 16.6   3.7 100650 74
2003-04-10 07:45:34 51°20.81 3°0.62 15.4 2 3.7 100640 75
2003-04-10 07:45:38 51°20.82 3°0.64 15.6 1 3.7 100650 75
2003-04-10 07:45:44 51°20.82 3°0.68 14.6 359 3.7 100650 75
2003-04-10 07:45:48 51°20.83 3°0.7 16.5 2 3.7 100640 75
2003-04-10 07:45:54 51°20.84 3°0.74 14.9 358 3.7 100640 75
2003-04-10 07:45:58 51°20.84 3°0.76 14.8 7 3.7 100630 75
2003-04-10 07:46:04 51°20.85 3°0.8 14.2 4 3.7 100630 75
2003-04-10 07:46:08 51°20.86 3°0.82 13.1 357 3.7 100640 74
2003-04-10 07:46:14 51°20.86 3°0.85 14.9 1 3.7 100640 74
2003-04-10 07:46:18 51°20.87 3°0.88 15.5 7 3.7 100630 74
2003-04-10 07:46:24 51°20.88 3°0.91 15 4 3.7 100630 74
2003-04-10 07:46:28 51°20.88 3°0.94 14.6 4 3.7 100620 74
2003-04-10 07:46:34 51°20.89 3°0.97 14 3 3.7 100620 74
2003-04-10 07:46:38 51°20.9 3°0.99 13.7 5 3.8 100640 74
2003-04-10 07:46:44 51°20.9 3°1.03 14.9 7 3.8 100640 74
2003-04-10 07:46:48 51°20.91 3°1.05 14.4 7 3.8 100650 74
2003-04-10 07:46:54 51°20.92 3°1.09 13.8 10 3.8 100650 74
2003-04-10 07:46:58 51°20.92 3°1.11 13.9 5 3.7 100650 73
2003-04-10 07:47:04 51°20.93 3°1.15 13.4 8 3.7 100650 73
2003-04-10 07:47:08 51°20.93 3°1.17 13.2 5 3.7 100650 73
2003-04-10 07:47:14 51°20.94 3°1.2 13.4 5 3.7 100630 73
2003-04-10 07:47:18 51°20.95 3°1.23 12.8   3.7 100640 72
2003-04-10 07:47:24 51°20.96 3°1.26 12.5 2 3.7 100640 72
2003-04-10 07:47:28 51°20.96 3°1.29 14   3.7 100640 72
2003-04-10 07:47:34 51°20.97 3°1.32 13.6 358 3.7 100640 72
2003-04-10 07:47:38 51°20.98 3°1.34 13.4 356 3.7 100640 72
2003-04-10 07:47:44 51°20.98 3°1.38 15.7 360 3.7 100640 72
2003-04-10 07:47:48 51°20.99 3°1.4 15.6 2 3.7 100640 72
2003-04-10 07:47:54 51°21 3°1.44 15.6 359 3.7 100640 72
2003-04-10 07:47:58 51°21 3°1.46 16.1 4 3.7 100640 72
2003-04-10 07:48:04 51°21.01 3°1.5 15.6 2 3.7 100640 72
2003-04-10 07:48:08 51°21.02 3°1.52 16.3 6 3.7 100640 72
2003-04-10 07:48:14 51°21.02 3°1.55 16.3 3 3.7 100640 72
2003-04-10 07:48:18 51°21.03 3°1.58 15.4 1 3.7 100630 72
2003-04-10 07:48:24 51°21.04 3°1.61 14.1   3.7 100630 72
2003-04-10 07:48:28 51°21.04 3°1.63 14.6 4 3.7 100630 71
2003-04-10 07:48:34 51°21.05 3°1.67 15.2 9 3.7 100630 71
2003-04-10 07:48:38 51°21.06 3°1.69 14.6 10 3.7 100620 70
2003-04-10 07:48:44 51°21.06 3°1.73 15.4 9 3.7 100620 70
2003-04-10 07:48:48 51°21.07 3°1.75 13.9 9 3.7 100640 70
2003-04-10 07:48:54 51°21.08 3°1.78 14.9 7 3.7 100640 70
2003-04-10 07:48:58 51°21.08 3°1.81 14.6 10 3.7 100630 70
2003-04-10 07:49:04 51°21.09 3°1.84 13.5 13 3.7 100630 70
2003-04-10 07:49:08 51°21.1 3°1.87 13.7 7 3.7 100630 69
2003-04-10 07:49:14 51°21.1 3°1.9 14.6 8 3.7 100630 69
2003-04-10 07:49:18 51°21.11 3°1.92 14.1 6 3.7 100620 69
2003-04-10 07:49:24 51°21.12 3°1.96 13.8 5 3.7 100620 69
2003-04-10 07:49:28 51°21.12 3°1.98 14.1 8 3.7 100620 70
2003-04-10 07:49:34 51°21.13 3°2.02 13.6 7 3.7 100620 70
2003-04-10 07:49:38 51°21.13 3°2.04 13.4 4 3.7 100630 70
2003-04-10 07:49:44 51°21.14 3°2.07 13.6 6 3.7 100630 70
2003-04-10 07:49:48 51°21.15 3°2.1 14.7 5 3.7 100630 69
2003-04-10 07:49:54 51°21.16 3°2.13 13.4 1 3.7 100630 69
2003-04-10 07:49:58 51°21.16 3°2.16 14 5 3.7 100640 69
2003-04-10 07:50:04 51°21.17 3°2.19 13.1 7 3.7 100640 69
2003-04-10 07:50:08 51°21.17 3°2.21 12.9 6 3.7 100640 69
2003-04-10 07:50:14 51°21.18 3°2.25 12.1 6 3.8 100640 69
2003-04-10 07:50:18 51°21.19 3°2.27 12.1 6 3.8 100650 69
2003-04-10 07:50:24 51°21.19 3°2.31 13.6 6 3.8 100650 69
2003-04-10 07:50:28 51°21.2 3°2.33 13.4 4 3.7 100640 68
2003-04-10 07:50:34 51°21.21 3°2.37 12.4 5 3.7 100640 68
2003-04-10 07:50:38 51°21.21 3°2.39 12.4 4 3.7 100650 68
2003-04-10 07:50:44 51°21.22 3°2.42 12.2 3 3.7 100650 68
2003-04-10 07:50:48 51°21.23 3°2.45 13.5 356 3.7 100640 68
2003-04-10 07:50:54 51°21.23 3°2.48 14.4   3.7 100640 68
2003-04-10 07:50:58 51°21.24 3°2.51 14.7 3 3.7 100650 68
2003-04-10 07:51:04 51°21.25 3°2.54 13 1 3.7 100650 68
2003-04-10 07:51:08 51°21.25 3°2.56 12.9 3 3.7 100650 68
2003-04-10 07:51:14 51°21.26 3°2.6 14.8 360 3.7 100650 68
2003-04-10 07:51:18 51°21.27 3°2.62 14.4   3.7 100650 68
2003-04-10 07:51:24 51°21.27 3°2.66 14.2 2 3.7 100650 68
2003-04-10 07:51:28 51°21.28 3°2.68 14.6 3 3.7 100640 69
2003-04-10 07:51:34 51°21.29 3°2.72 14.2 2 3.7 100640 69
2003-04-10 07:51:38 51°21.29 3°2.74 14.3 355 3.8 100650 69
2003-04-10 07:51:44 51°21.3 3°2.78 14.8 354 3.8 100650 69
2003-04-10 07:51:48 51°21.31 3°2.8 14.6 356 3.8 100630 69
2003-04-10 07:51:54 51°21.32 3°2.83 13.7 360 3.8 100630 69
2003-04-10 07:51:58 51°21.32 3°2.86 13.7 357 3.8 100650 70
2003-04-10 07:52:04 51°21.33 3°2.89 13.2 357 3.8 100650 70
2003-04-10 07:52:08 51°21.33 3°2.92 13.7 358 3.8 100650 70
2003-04-10 07:52:14 51°21.34 3°2.95 13.3 359 3.8 100650 70
2003-04-10 07:52:18 51°21.35 3°2.98 14.5 359 3.7 100660 71
2003-04-10 07:52:24 51°21.35 3°3.01 12.9 358 3.7 100660 71
2003-04-10 07:52:28 51°21.36 3°3.03 13.2 357 3.7 100640 71
2003-04-10 07:52:34 51°21.37 3°3.07 12.6 359 3.7 100640 71
2003-04-10 07:52:38 51°21.37 3°3.09 13 352 3.7 100660 72
2003-04-10 07:52:44 51°21.38 3°3.13 12.7   3.7 100660 72
2003-04-10 07:52:48 51°21.39 3°3.15 13.2 357 3.7 100640 71
2003-04-10 07:52:54 51°21.39 3°3.19 13.7 356 3.7 100640 71
2003-04-10 07:52:58 51°21.4 3°3.21 13.3 355 3.7 100650 72
2003-04-10 07:53:04 51°21.41 3°3.25 13.5 350 3.7 100650 72
2003-04-10 07:53:08 51°21.41 3°3.27 12.4 355 3.7 100650 72
2003-04-10 07:53:14 51°21.42 3°3.31 12.7 355 3.7 100650 72
2003-04-10 07:53:18 51°21.43 3°3.33 12.3 358 3.7 100650 72
2003-04-10 07:53:24 51°21.43 3°3.36 13.3 352 3.7 100650 72
2003-04-10 07:53:28 51°21.44 3°3.39 14.3 355 3.7 100650 72
2003-04-10 07:53:34 51°21.45 3°3.42 14.2 359 3.7 100650 72
2003-04-10 07:53:38 51°21.45 3°3.45 12.1 353 3.7 100660 72
2003-04-10 07:53:44 51°21.46 3°3.48 13.6 354 3.7 100660 72
2003-04-10 07:53:48 51°21.47 3°3.5 13.1 359 3.7 100670 73
2003-04-10 07:53:54 51°21.47 3°3.54 13.6 359 3.7 100670 73
2003-04-10 07:53:58 51°21.48 3°3.56 12.9 358 3.7 100660 72
2003-04-10 07:54:04 51°21.49 3°3.6 12.4 2 3.7 100660 72
2003-04-10 07:54:08 51°21.49 3°3.62 13.3 359 3.7 100660 72
2003-04-10 07:54:14 51°21.5 3°3.66 13.3 3 3.7 100660 72
2003-04-10 07:54:18 51°21.51 3°3.68 13.5 356 3.7 100650 72
2003-04-10 07:54:24 51°21.51 3°3.72 13.3   3.7 100650 72
2003-04-10 07:54:28 51°21.52 3°3.74 13.5 357 3.7 100640 72
2003-04-10 07:54:34 51°21.53 3°3.77 13.5 358 3.7 100640 72
2003-04-10 07:54:38 51°21.53 3°3.8 13.2 358 3.7 100640 72
2003-04-10 07:54:44 51°21.54 3°3.83 12.8 1 3.7 100640 72
2003-04-10 07:54:48 51°21.55 3°3.86 13.4 352 3.7 100650 72
2003-04-10 07:54:54 51°21.55 3°3.89 15.2 356 3.7 100650 72
2003-04-10 07:54:58 51°21.56 3°3.91 14 354 3.7 100650 73
2003-04-10 07:55:04 51°21.57 3°3.95 15 1 3.7 100650 73
2003-04-10 07:55:08 51°21.57 3°3.97 15.5 7 3.7 100660 73
2003-04-10 07:55:14 51°21.58 3°4.01 15.2 5 3.7 100660 73
2003-04-10 07:55:18 51°21.59 3°4.03 14.2 2 3.7 100670 73
2003-04-10 07:55:24 51°21.59 3°4.06 13.1 5 3.7 100670 73
2003-04-10 07:55:28 51°21.6 3°4.09 13.6 3 3.7 100660 73
2003-04-10 07:55:34 51°21.61 3°4.12 12.9 3 3.7 100660 73
2003-04-10 07:55:38 51°21.61 3°4.15 14.4 354 3.7 100630 72
2003-04-10 07:55:44 51°21.62 3°4.18 14.5 359 3.7 100630 72
2003-04-10 07:55:48 51°21.63 3°4.2 12.9 358 3.6 100650 72
2003-04-10 07:55:54 51°21.63 3°4.24 13.7 356 3.6 100650 72
2003-04-10 07:55:58 51°21.64 3°4.26 14.9 357 3.6 100650 72
2003-04-10 07:56:04 51°21.65 3°4.3 15.2 358 3.6 100650 72
2003-04-10 07:56:08 51°21.65 3°4.32 15.2 358 3.6 100660 72
2003-04-10 07:56:14 51°21.66 3°4.36 14.7 3 3.6 100660 72
2003-04-10 07:56:18 51°21.67 3°4.38 13.8 2 3.6 100660 72
2003-04-10 07:56:24 51°21.67 3°4.42 13.2 5 3.6 100660 72
2003-04-10 07:56:28 51°21.68 3°4.44 12.3 359 3.7 100640 72
2003-04-10 07:56:34 51°21.69 3°4.47 13.1 360 3.7 100640 72
2003-04-10 07:56:38 51°21.69 3°4.5 13.7 3 3.7 100660 72
2003-04-10 07:56:44 51°21.7 3°4.53 13.8 2 3.7 100660 72
2003-04-10 07:56:48 51°21.71 3°4.55 15.7 7 3.7 100660 73
2003-04-10 07:56:54 51°21.71 3°4.59 13.2 6 3.7 100660 73
2003-04-10 07:56:58 51°21.72 3°4.61 14.2 9 3.7 100650 72
2003-04-10 07:57:04 51°21.73 3°4.65 14.1 4 3.7 100650 72
2003-04-10 07:57:08 51°21.73 3°4.67 14.7 354 3.7 100660 72
2003-04-10 07:57:14 51°21.74 3°4.71 13.4 359 3.7 100660 72
2003-04-10 07:57:18 51°21.74 3°4.73 13.6 359 3.7 100650 72
2003-04-10 07:57:24 51°21.75 3°4.76 12.7 357 3.7 100650 72
2003-04-10 07:57:28 51°21.76 3°4.79 13 1 3.7 100640 72
2003-04-10 07:57:34 51°21.77 3°4.82 15.6 358 3.7 100640 72
2003-04-10 07:57:38 51°21.77 3°4.85 16.9 357 3.6 100650 72
2003-04-10 07:57:44 51°21.78 3°4.88 15.6 357 3.6 100650 72
2003-04-10 07:57:48 51°21.78 3°4.9 14.2 1 3.5 100660 72
2003-04-10 07:57:54 51°21.79 3°4.94 16 6 3.5 100660 72
2003-04-10 07:57:58 51°21.8 3°4.96 16.3 1 3.5 100660 72
2003-04-10 07:58:04 51°21.8 3°5 16.2 6 3.7 100650 72
2003-04-10 07:58:08 51°21.81 3°5.02 15.6 2 3.7 100650 72
2003-04-10 07:58:14 51°21.82 3°5.05 14.4 5 3.7 100640 73
2003-04-10 07:58:18 51°21.82 3°5.08 14.3 2 3.7 100640 73
2003-04-10 07:58:24 51°21.83 3°5.11 14.1 4 3.7 100640 73
2003-04-10 07:58:28 51°21.83 3°5.13 14 8 3.7 100640 73
2003-04-10 07:58:34 51°21.84 3°5.17 12.6 5 3.7 100640 73
2003-04-10 07:58:38 51°21.85 3°5.19 12.2 9 3.7 100650 72
2003-04-10 07:58:44 51°21.85 3°5.23 12.3 9 3.7 100650 72
2003-04-10 07:58:48 51°21.86 3°5.25 12.3 7 3.7 100650 72
2003-04-10 07:58:54 51°21.87 3°5.28 12.8 5 3.7 100650 72
2003-04-10 07:58:58 51°21.87 3°5.31 13.3 4 3.6 100650 72
2003-04-10 07:59:04 51°21.88 3°5.34 12.7 360 3.6 100650 72
2003-04-10 07:59:08 51°21.89 3°5.37 12.6 356 3.7 100660 72
2003-04-10 07:59:14 51°21.89 3°5.4 14.6 355 3.7 100660 72
2003-04-10 07:59:18 51°21.9 3°5.42 15 354 3.7 100650 73
2003-04-10 07:59:24 51°21.91 3°5.46 13.3 357 3.7 100650 73
2003-04-10 07:59:28 51°21.91 3°5.48 13.5 356 3.7 100660 72
2003-04-10 07:59:34 51°21.92 3°5.52 13.6 2 3.7 100660 72
2003-04-10 07:59:38 51°21.92 3°5.54 13.5 359 3.7 100660 72
2003-04-10 07:59:44 51°21.93 3°5.57 14 4 3.7 100660 72
2003-04-10 07:59:48 51°21.94 3°5.6 13.5 357 3.7 100660 73
2003-04-10 07:59:54 51°21.94 3°5.63 12.8 359 3.7 100660 73
2003-04-10 07:59:58 51°21.95 3°5.65 14.5 356 3.6 100650 73
2003-04-10 08:00:04 51°21.96 3°5.69 14.3 1 3.6 100650 73
2003-04-10 08:00:08 51°21.96 3°5.71 14 1 3.6 100640 72
2003-04-10 08:00:14 51°21.97 3°5.75 13.5 5 3.6 100640 72
2003-04-10 08:00:18 51°21.97 3°5.77 13.7 2 3.6 100640 72
2003-04-10 08:00:24 51°21.98 3°5.8 14.1 1 3.6 100640 72
2003-04-10 08:00:28 51°21.99 3°5.83 12.8 2 3.6 100640 72
2003-04-10 08:00:34 51°21.99 3°5.86 15.1 7 3.6 100650 73
2003-04-10 08:00:38 51°22 3°5.89 14 8 3.6 100650 73
2003-04-10 08:00:44 51°22.01 3°5.92 13.1 10 3.6 100640 72
2003-04-10 08:00:48 51°22.01 3°5.94 13.6 5 3.6 100640 72
2003-04-10 08:00:54 51°22.02 3°5.98 13.8 4 3.6 100650 72
2003-04-10 08:00:58 51°22.02 3°6 13.5 4 3.6 100650 72
2003-04-10 08:01:04 51°22.03 3°6.04 13.5 6 3.6 100640 72
2003-04-10 08:01:08 51°22.04 3°6.06 12.3 2 3.6 100640 72
2003-04-10 08:01:14 51°22.05 3°6.09 12.7 2 3.6 100640 72
2003-04-10 08:01:18 51°22.05 3°6.12 13.6 4 3.6 100640 72
2003-04-10 08:01:24 51°22.06 3°6.15 12.2 5 3.6 100670 72
2003-04-10 08:01:28 51°22.06 3°6.17 12 5 3.6 100670 72
2003-04-10 08:01:34 51°22.07 3°6.21 12.4 357 3.6 100650 72
2003-04-10 08:01:38 51°22.08 3°6.23 12.3 5 3.6 100650 72
2003-04-10 08:01:44 51°22.08 3°6.27 12.5 355 3.7 100650 72
2003-04-10 08:01:48 51°22.09 3°6.29 13.6   3.7 100650 72
2003-04-10 08:01:54 51°22.1 3°6.32 12.4 1 3.6 100650 72
2003-04-10 08:01:58 51°22.1 3°6.35 13.2 5 3.6 100650 72
2003-04-10 08:02:04 51°22.11 3°6.38 14 359 3.6 100660 73
2003-04-10 08:02:08 51°22.11 3°6.4 14.7 1 3.6 100660 73
2003-04-10 08:02:14 51°22.12 3°6.44 15.4 2 3.7 100650 73
2003-04-10 08:02:18 51°22.13 3°6.46 13.7 355 3.7 100650 73
2003-04-10 08:02:24 51°22.13 3°6.5 12 359 3.7 100650 73
2003-04-10 08:02:28 51°22.14 3°6.52 12.6   3.7 100650 73
2003-04-10 08:02:34 51°22.15 3°6.55 13.2 359 3.7 100650 73
2003-04-10 08:02:38 51°22.15 3°6.58 14.2 350 3.7 100650 73
2003-04-10 08:02:44 51°22.16 3°6.61 14.8 356 3.7 100660 73
2003-04-10 08:02:48 51°22.17 3°6.63 13.8 358 3.7 100660 73
2003-04-10 08:02:54 51°22.17 3°6.67 13.8 352 3.7 100660 73
2003-04-10 08:02:58 51°22.18 3°6.69 13.4 352 3.7 100660 73
2003-04-10 08:03:04 51°22.19 3°6.73 14.7 357 3.7 100650 74
2003-04-10 08:03:08 51°22.19 3°6.75 15.8 354 3.7 100650 74
2003-04-10 08:03:14 51°22.2 3°6.78 15.4 360 3.7 100660 73
2003-04-10 08:03:18 51°22.2 3°6.81 15.3 356 3.7 100660 73
2003-04-10 08:03:24 51°22.21 3°6.84 15 358 3.6 100670 73
2003-04-10 08:03:28 51°22.22 3°6.86 14.6 354 3.6 100670 73
2003-04-10 08:03:34 51°22.23 3°6.9 14.3 357 3.7 100650 73
2003-04-10 08:03:38 51°22.23 3°6.92 16.1 357 3.7 100650 73
2003-04-10 08:03:44 51°22.24 3°6.95 15.1 360 3.6 100660 73
2003-04-10 08:03:48 51°22.24 3°6.98 14.7 357 3.6 100660 73
2003-04-10 08:03:54 51°22.25 3°7.01 14.2 360 3.6 100660 73
2003-04-10 08:03:58 51°22.26 3°7.03 14.5 360 3.6 100660 73
2003-04-10 08:04:04 51°22.26 3°7.07 14.4   3.7 100650 73
2003-04-10 08:04:08 51°22.27 3°7.09 14.1 359 3.7 100650 73
2003-04-10 08:04:14 51°22.28 3°7.12 13.7 353 3.6 100640 73
2003-04-10 08:04:18 51°22.28 3°7.15 12.1 357 3.6 100640 73
2003-04-10 08:04:24 51°22.29 3°7.18 14.4 2 3.6 100650 73
2003-04-10 08:04:28 51°22.29 3°7.2 14 359 3.6 100650 73
2003-04-10 08:04:34 51°22.3 3°7.24 14.9 1 3.6 100660 73
2003-04-10 08:04:38 51°22.31 3°7.26 15.7 3 3.6 100660 73
2003-04-10 08:04:44 51°22.31 3°7.29 16.3 2 3.6 100660 73
2003-04-10 08:04:48 51°22.32 3°7.32 15.5 1 3.6 100660 73
2003-04-10 08:04:54 51°22.33 3°7.35 15.6 4 3.6 100660 73
2003-04-10 08:04:58 51°22.33 3°7.37 14.6 2 3.6 100660 73
2003-04-10 08:05:04 51°22.34 3°7.41 14.3 358 3.6 100650 74
2003-04-10 08:05:08 51°22.34 3°7.43 15.3 3 3.6 100650 74
2003-04-10 08:05:14 51°22.35 3°7.46 13.9 6 3.6 100640 74
2003-04-10 08:05:18 51°22.36 3°7.49 13.5   3.6 100640 74
2003-04-10 08:05:24 51°22.36 3°7.52 15 2 3.6 100640 74
2003-04-10 08:05:28 51°22.37 3°7.54 14.1 1 3.7 100660 75
2003-04-10 08:05:34 51°22.38 3°7.58 14 2 3.7 100660 75
2003-04-10 08:05:38 51°22.38 3°7.6 13 358 3.7 100660 75
2003-04-10 08:05:44 51°22.39 3°7.63 13.9 359 3.6 100650 74
2003-04-10 08:05:48 51°22.39 3°7.66 14.8 360 3.6 100650 74
2003-04-10 08:05:54 51°22.4 3°7.69 14.6 14 3.6 100660 74
2003-04-10 08:05:58 51°22.41 3°7.71 14.7 356 3.6 100660 74
2003-04-10 08:06:04 51°22.42 3°7.75 14.1 3 3.6 100660 74
2003-04-10 08:06:08 51°22.42 3°7.77 13.2 1 3.6 100660 74
2003-04-10 08:06:14 51°22.43 3°7.8 13.3 3 3.6 100660 74
2003-04-10 08:06:18 51°22.43 3°7.83 14.4 4 3.6 100660 74
2003-04-10 08:06:24 51°22.44 3°7.86 14.4 4 3.7 100660 75
2003-04-10 08:06:28 51°22.44 3°7.88 13.7 1 3.7 100660 75
2003-04-10 08:06:34 51°22.45 3°7.92 13.9 5 3.7 100650 75
2003-04-10 08:06:38 51°22.46 3°7.94 14.5 12 3.7 100650 75
2003-04-10 08:06:44 51°22.46 3°7.97 13.5 3 3.7 100660 75
2003-04-10 08:06:48 51°22.47 3°8 15.9 3 3.7 100660 75
2003-04-10 08:06:54 51°22.48 3°8.03 15.5 2 3.7 100650 75
2003-04-10 08:06:58 51°22.48 3°8.05 15.1 6 3.7 100650 75
2003-04-10 08:07:04 51°22.49 3°8.09 15.7 4 3.7 100650 76
2003-04-10 08:07:08 51°22.49 3°8.11 15 2 3.7 100650 76
2003-04-10 08:07:14 51°22.5 3°8.15 14.3 2 3.7 100660 76
2003-04-10 08:07:18 51°22.5 3°8.17 14.2 4 3.7 100660 76
2003-04-10 08:07:24 51°22.5 3°8.21 15.3 7 3.7 100650 75
2003-04-10 08:07:28 51°22.51 3°8.23 13.5 4 3.7 100650 75
2003-04-10 08:07:34 51°22.51 3°8.27 14.5 357 3.7 100640 75
2003-04-10 08:07:38 51°22.52 3°8.29 14.7 7 3.7 100640 75
2003-04-10 08:07:44 51°22.52 3°8.32 15.6 6 3.7 100660 75
2003-04-10 08:07:48 51°22.52 3°8.35 14.5 5 3.6 100640 74
2003-04-10 08:07:54 51°22.53 3°8.38 14.5 360 3.6 100640 74
2003-04-10 08:07:58 51°22.53 3°8.41 14.4 6 3.6 100640 74
2003-04-10 08:08:04 51°22.53 3°8.44 14.9 8 3.6 100660 74
2003-04-10 08:08:08 51°22.54 3°8.47 14.2 7 3.6 100660 74
2003-04-10 08:08:14 51°22.54 3°8.5 13.9 5 3.6 100660 74
2003-04-10 08:08:18 51°22.54 3°8.53 15.2 10 3.6 100660 74
2003-04-10 08:08:24 51°22.55 3°8.56 14.4 10 3.6 100650 74
2003-04-10 08:08:28 51°22.55 3°8.59 14.6 9 3.6 100650 74
2003-04-10 08:08:34 51°22.55 3°8.62 14.3 12 3.6 100650 74
2003-04-10 08:08:38 51°22.56 3°8.65 14.1 10 3.6 100650 74
2003-04-10 08:08:44 51°22.56 3°8.68 13.5 12 3.6 100650 74
2003-04-10 08:08:48 51°22.56 3°8.7 14.2 13 3.6 100650 74
2003-04-10 08:08:54 51°22.57 3°8.74 15.1 4 3.6 100650 74
2003-04-10 08:08:58 51°22.57 3°8.76 14.2 12 3.6 100650 74
2003-04-10 08:09:04 51°22.57 3°8.8 15.7 10 3.6 100640 75
2003-04-10 08:09:08 51°22.58 3°8.82 15.7 12 3.6 100640 75
2003-04-10 08:09:14 51°22.58 3°8.86 15.7 14 3.7 100640 75
2003-04-10 08:09:18 51°22.58 3°8.88 14.4 12 3.7 100640 75
2003-04-10 08:09:24 51°22.59 3°8.92 14.7 14 3.7 100640 75
2003-04-10 08:09:28 51°22.59 3°8.94 13.8 14 3.7 100640 75
2003-04-10 08:09:34 51°22.6 3°8.98 13.6 12 3.7 100650 75
2003-04-10 08:09:38 51°22.6 3°9 14.2 8 3.7 100650 75
2003-04-10 08:09:44 51°22.6 3°9.04 14.8 11 3.7 100640 75
2003-04-10 08:09:48 51°22.61 3°9.06 14.1 8 3.7 100640 75
2003-04-10 08:09:54 51°22.61 3°9.1 15.1 9 3.7 100640 74
2003-04-10 08:09:58 51°22.61 3°9.12 14.3 9 3.7 100640 74
2003-04-10 08:10:04 51°22.62 3°9.16 14.4 9 3.7 100650 74
2003-04-10 08:10:08 51°22.62 3°9.18 13.5 14 3.6 100640 74
2003-04-10 08:10:14 51°22.62 3°9.22 15.2 12 3.6 100640 74
2003-04-10 08:10:18 51°22.63 3°9.24 14.9 12 3.6 100640 74
2003-04-10 08:10:24 51°22.63 3°9.27 12.9 8 3.6 100650 74
2003-04-10 08:10:28 51°22.63 3°9.3 13.4 11 3.6 100650 74